EHI
18 18 19 22 23 23 21 21 22 26 29 29 24 18 15 14 12 9 7 6 5 7 12 17 16 12 11 13 10 5 4 3 1 1 0 0 0 0 0 0 0 0 0
17 17 16 15 16 17 17 16 18 20 23 23 19 13 11 10 8 6 4 3 3 5 9 13 13 12 11 11 8 5 3 2 2 1 1 0 0 0 0 0 0 0 1
14 13 10 7 8 10 10 10 12 13 14 13 10 7 7 7 5 3 2 2 2 3 6 8 9 10 9 6 4 3 2 2 2 2 1 0 0 0 0 0 0 0 1
7 6 4 3 4 5 5 5 8 9 7 6 5 4 5 5 4 3 2 2 1 2 3 4 5 7 6 4 3 2 1 1 1 2 2 0 0 0 0 0 0 0 1
1 1 1 1 1 2 1 3 5 6 4 2 2 3 3 3 2 2 3 2 1 2 2 2 3 4 5 5 5 3 1 1 1 2 2 1 0 0 0 0 0 0 0
1 1 1 0 0 0 0 1 3 4 2 1 1 1 1 1 1 1 2 2 2 1 1 1 1 3 4 5 5 5 3 2 2 4 5 4 2 1 0 0 0 0 0
0 1 1 0 0 0 0 0 1 1 1 1 0 0 0 0 0 0 0 1 1 0 0 0 0 1 2 3 3 4 4 3 2 5 8 9 7 3 1 0 0 0 0
0 0 0 0 0 0 0 0 0 0 0 0 0 0 0 0 0 1 1 0 0 0 0 0 0 0 1 1 2 3 3 2 1 3 7 11 10 7 3 1 0 0 0
0 0 0 0 0 0 0 0 0 0 0 0 0 0 0 0 0 1 1 1 1 1 0 0 0 0 0 0 0 1 2 2 1 1 3 6 9 10 7 5 3 2 1
0 0 0 0 0 0 0 0 0 0 0 0 0 0 0 0 0 1 1 1 1 1 0 0 0 0 0 0 0 0 1 2 2 2 1 2 5 7 9 9 8 5 3
0 0 0 0 0 0 0 0 0 0 0 0 0 0 0 0 0 0 0 0 1 1 0 0 0 0 0 0 0 0 0 1 1 1 1 0 1 3 7 10 11 9 7
0 0 0 0 0 0 0 0 0 0 0 0 0 0 0 0 0 0 0 0 0 0 0 0 0 0 0 0 0 0 0 0 0 0 0 0 1 2 4 8 9 8 7
0 0 0 0 0 0 0 0 0 0 0 0 0 0 0 0 0 0 0 0 0 0 0 0 0 0 0 0 0 0 0 0 0 0 0 0 0 1 3 6 6 4 2
0 0 0 0 0 0 0 0 0 0 0 0 0 0 0 0 0 0 0 0 0 0 0 0 0 0 0 0 0 0 0 0 0 0 0 0 0 1 2 3 3 1 0
0 0 0 0 0 0 0 0 0 0 0 0 0 0 0 0 0 0 0 0 0 0 0 0 0 0 0 0 0 0 0 0 0 0 0 0 0 0 1 1 1 1 0
0 0 0 0 0 0 0 0 0 0 0 0 0 0 0 0 0 0 0 0 0 0 0 0 0 0 0 0 0 0 0 0 0 0 0 0 0 0 0 0 0 0 0
0 0 0 0 0 0 0 0 0 0 0 0 0 0 0 0 0 0 0 0 0 0 0 0 0 0 0 0 0 0 0 0 0 0 0 0 0 0 0 0 0 0 0
0 0 0 0 0 0 0 0 0 0 0 0 0 0 0 0 0 0 0 0 0 0 0 0 0 0 0 0 0 0 0 0 0 0 0 0 0 0 0 0 0 0 0
0 0 0 0 0 0 0 0 0 0 0 0 0 0 0 0 0 0 0 0 0 0 0 0 0 0 0 0 0 0 0 0 0 0 0 0 0 0 0 0 0 0 0
0 0 0 0 0 0 0 0 0 0 0 0 0 0 0 0 0 0 0 0 0 0 0 0 0 0 0 0 0 0 0 0 0 0 0 0 0 0 0 0 0 0 0
0 0 0 0 0 0 0 0 0 0 0 0 0 0 0 0 0 0 0 0 0 0 0 0 0 0 0 0 0 0 0 0 0 0 0 0 0 0 0 0 0 0 0
0 0 0 0 0 0 0 0 0 0 0 0 0 0 0 0 0 0 0 0 0 0 0 0 0 0 0 0 0 0 0 0 0 0 0 0 0 0 0 0 0 0 0
0 0 0 0 0 0 0 0 0 0 0 0 0 0 0 0 0 0 0 0 0 0 0 0 0 0 0 0 0 0 0 0 0 0 0 0 0 0 0 0 0 0 0
0 0 0 0 0 0 0 0 0 0 0 0 0 0 0 0 0 0 0 0 0 0 0 0 0 0 0 0 0 0 0 0 0 0 0 0 0 0 0 0 0 0 0
0 0 0 0 0 0 0 0 0 0 0 0 0 0 0 0 0 0 0 0 0 0 0 0 0 0 0 0 0 0 0 0 0 0 0 0 0 0 0 0 0 0 0
0 0 0 0 0 0 0 0 0 0 0 0 0 0 0 0 0 0 0 0 0 0 0 0 0 0 0 0 0 0 0 0 0 0 0 0 0 0 0 0 0 0 0
Wind_Speed
10 10 9 8 7 6 5 4 4 3 2 1 3 3 3 4 4 4 5 6 7 7 6 6 5 6 6 6 7 7 7 6 4 5 5 6 7 6 6 7 7 8 8
9 10 10 9 8 7 6 5 4 3 2 1 2 2 3 3 3 3 3 5 6 6 6 6 6 7 6 7 7 7 6 5 4 5 5 5 6 6 6 5 6 6 6
9 8 8 8 7 7 6 5 4 3 3 2 1 1 3 3 2 2 2 3 4 5 6 6 6 6 7 7 7 7 8 6 5 5 5 5 3 3 5 5 5 4 5
8 7 7 7 6 5 4 4 3 3 2 1 2 3 3 3 2 2 1 2 4 5 6 6 6 6 6 6 7 7 6 7 6 5 5 5 4 4 3 6 6 5 5
6 6 6 5 5 5 4 3 4 4 3 3 3 4 4 3 2 1 2 2 2 3 4 5 5 5 5 6 6 5 7 7 7 6 5 6 5 7 6 4 4 5 5
5 5 5 5 5 5 5 5 5 5 5 5 5 5 5 5 4 4 3 3 2 2 2 3 3 4 4 5 6 6 8 8 8 7 6 6 6 7 6 6 6 5 4
5 6 6 7 7 7 7 7 7 7 7 7 7 7 7 7 7 6 4 4 3 3 3 3 3 3 3 5 6 6 7 8 8 8 7 7 7 6 6 7 6 5 4
7 7 8 8 8 9 9 9 9 10 9 9 8 8 9 8 7 7 7 6 5 5 3 5 5 5 5 6 5 6 7 7 8 9 8 7 7 7 7 7 7 7 7
9 9 10 9 10 10 10 11 11 11 11 11 10 10 10 10 10 9 9 9 7 7 6 7 6 6 7 7 6 6 7 6 8 8 9 8 7 7 7 7 7 8 8
10 11 11 11 11 11 11 12 12 12 12 12 11 10 11 11 11 11 12 11 10 9 8 9 8 8 7 8 8 8 8 7 7 7 8 8 8 7 7 7 7 8 8
13 13 12 12 13 13 13 13 13 14 13 13 13 12 13 12 12 12 12 12 12 11 11 11 10 10 9 9 8 10 9 9 9 9 10 10 10 7 7 7 8 8 8
14 14 14 14 14 15 15 15 15 15 14 14 14 14 14 14 14 14 13 13 13 13 13 12 11 12 12 11 11 11 10 10 10 10 10 11 9 10 9 7 9 8 8
15 15 15 15 15 16 16 16 16 16 16 15 15 15 15 15 14 14 14 14 14 13 14 13 13 13 12 12 12 12 11 10 10 10 11 11 11 11 9 9 9 8 8
15 16 15 15 15 16 16 16 17 16 16 16 16 16 15 15 15 15 14 14 14 14 14 14 14 14 14 13 13 13 12 11 11 10 10 11 11 11 11 10 10 9 9
17 17 16 16 16 16 16 16 16 16 16 16 16 16 16 15 14 14 14 13 13 14 14 14 14 14 13 13 13 13 13 12 11 11 11 11 9 7 8 8 9 9 9
18 18 18 18 17 17 16 16 16 16 16 16 17 16 15 15 15 14 14 14 13 13 13 14 14 14 12 10 9 11 12 12 12 11 11 10 10 10 10 11 10 10 10
18 18 18 17 17 17 16 16 16 16 16 16 16 16 15 15 14 14 14 13 13 12 12 13 13 14 12 8 10 11 12 13 12 12 11 11 10 10 11 12 15 14 14
18 17 17 17 17 17 16 16 16 16 16 16 15 15 14 14 13 13 12 12 11 11 10 11 12 12 11 10 11 11 13 13 13 13 12 12 11 10 9 10 11 13 14
17 16 16 17 17 17 16 16 16 16 16 15 15 15 14 13 13 12 11 10 10 9 9 10 11 11 10 10 12 13 11 12 14 13 13 12 12 9 8 11 12 12 11
15 15 16 16 16 16 16 16 16 16 16 15 15 15 14 13 13 12 11 9 9 9 8 9 9 10 10 9 11 13 10 11 11 11 11 11 12 8 9 11 12 12 11
16 16 15 15 15 15 15 15 16 15 15 15 15 14 13 12 11 10 9 9 8 8 7 8 8 8 7 7 10 12 9 10 10 9 9 8 12 11 10 11 11 10 8
16 16 14 15 14 14 14 15 15 15 15 14 14 13 12 11 9 8 8 8 7 7 6 6 7 6 6 6 8 11 12 9 9 8 7 4 9 10 10 10 9 7 7
15 14 15 15 14 14 14 15 15 15 15 14 13 12 12 9 9 8 7 6 5 5 4 4 4 4 4 4 7 10 11 11 9 6 3 1 6 8 10 12 10 9 9
14 14 15 15 15 15 15 14 14 14 14 13 12 11 10 9 8 6 5 4 4 4 3 3 3 3 2 3 4 7 8 10 10 9 7 8 7 8 7 7 10 10 9
13 13 13 14 15 15 15 14 13 13 13 13 11 10 9 8 7 5 4 4 3 3 4 3 2 2 1 2 3 2 2 3 3 5 6 6 6 7 7 7 8 8 8
13 13 14 14 15 15 15 14 12 12 12 10 10 8 7 6 5 5 3 2 3 3 2 2 3 2 2 2 2 2 2 1 1 4 5 5 6 6 6 6 7 7 8
Wind_Direction
59 55 53 53 57 60 63 53 47 47 14 324 283 263 258 260 255 250 258 258 249 238 232 236 233 239 237 237 235 236 229 234 234 246 244 235 235 236 236 233 237 223 222
61 54 51 51 55 58 58 56 48 52 40 11 307 300 300 283 279 267 253 261 249 241 234 234 236 231 229 226 231 231 247 233 215 244 250 233 203 211 222 220 221 228 219
56 52 49 44 42 42 35 30 27 33 39 18 282 269 261 266 275 286 272 262 262 252 251 245 242 240 236 223 223 223 231 237 220 231 255 259 240 180 184 214 216 217 226
53 46 41 35 30 25 22 15 4 2 3 303 299 299 291 300 304 292 293 276 263 263 255 244 237 238 238 233 229 220 229 238 235 211 234 268 314 272 199 194 190 201 220
44 37 30 19 11 2 351 349 344 331 321 305 293 288 294 298 296 279 246 259 255 256 260 251 244 239 241 239 245 237 234 234 243 237 221 219 225 247 265 226 195 202 205
27 21 10 358 347 340 333 329 325 319 313 305 302 295 297 294 289 276 262 248 234 237 250 259 254 248 250 244 244 244 236 243 248 251 245 234 228 224 233 239 230 226 209
1 358 352 348 340 331 327 317 310 304 302 296 293 293 291 285 277 278 269 263 255 233 212 235 240 248 247 248 248 242 250 244 242 241 243 247 251 252 243 247 245 241 225
354 347 345 341 337 333 328 319 313 306 301 295 293 292 286 280 280 277 282 273 269 266 236 229 228 232 236 242 241 248 242 242 243 243 241 246 248 249 246 246 249 243 233
342 338 335 334 332 329 327 325 320 312 305 299 294 286 282 281 283 282 268 267 261 257 237 234 235 235 235 239 239 248 249 243 241 242 236 238 243 242 244 244 245 249 250
334 334 331 330 327 323 322 321 317 314 308 301 293 288 286 281 278 276 276 273 269 262 250 241 238 238 238 236 238 245 239 240 242 246 247 240 243 239 237 237 239 243 252
333 332 331 332 327 323 322 320 317 313 308 303 299 294 287 283 277 270 267 265 262 258 250 245 243 239 238 238 238 248 248 244 246 244 242 238 242 242 239 235 235 236 239
330 331 331 329 326 325 323 320 318 313 309 305 300 294 289 284 277 271 268 264 261 258 252 248 247 243 240 237 239 244 247 246 247 247 246 243 238 232 238 238 236 234 235
330 330 330 328 326 324 321 319 317 314 312 309 303 299 295 291 285 279 275 269 263 257 254 249 246 245 245 244 242 243 244 243 246 249 247 245 241 237 235 233 235 231 228
331 330 328 325 324 321 319 317 315 314 311 308 303 298 295 292 288 283 277 270 264 258 253 249 245 244 244 244 243 240 239 241 244 247 249 250 245 240 238 236 235 237 232
330 328 326 325 322 321 319 317 315 313 310 306 302 298 295 292 287 282 278 272 265 261 256 251 247 244 241 239 238 236 236 237 240 242 243 245 248 262 257 254 243 236 233
329 328 326 325 323 322 319 318 314 312 310 306 303 300 297 294 289 283 278 273 267 262 260 253 249 245 243 232 222 234 243 242 239 239 240 242 231 229 231 248 258 260 250
328 327 326 325 323 321 321 318 317 315 312 308 306 304 300 296 291 288 285 279 273 267 260 255 249 247 244 220 209 220 241 244 242 241 239 242 237 221 232 225 226 237 243
326 327 325 323 321 320 320 320 317 315 313 311 310 308 305 300 296 292 287 284 276 268 261 256 250 248 242 212 207 210 233 242 242 240 238 241 247 240 239 244 238 235 229
326 324 322 322 320 320 322 321 317 315 314 313 313 311 308 304 299 293 286 283 278 269 260 256 252 246 240 215 205 207 231 235 238 239 237 237 240 231 217 241 246 244 239
326 324 323 320 320 324 324 319 317 317 318 318 316 311 308 304 298 293 288 282 277 273 267 259 251 247 241 216 202 207 234 236 235 233 234 230 235 228 203 232 241 240 236
326 325 324 323 324 324 323 318 318 319 319 317 314 310 308 305 299 295 290 285 279 273 265 263 255 247 241 216 199 204 236 241 237 235 231 225 196 208 210 230 246 249 251
329 329 326 324 326 325 323 320 319 319 317 314 313 312 311 309 308 304 296 289 283 276 263 255 254 245 231 223 202 201 221 251 251 247 245 221 172 191 207 223 238 237 236
330 328 326 325 326 327 326 322 320 320 318 316 316 315 314 310 308 305 301 295 283 277 271 262 255 247 231 201 197 204 212 226 244 251 258 210 180 200 213 223 223 217 222
329 329 327 326 326 329 326 323 321 322 320 319 320 320 319 318 319 314 310 305 299 294 283 273 265 255 235 216 201 200 199 205 222 236 212 204 211 229 247 218 206 216 219
329 328 327 326 327 327 325 326 328 327 324 322 323 323 326 327 323 325 334 329 341 350 324 316 305 302 300 27 16 307 249 231 220 227 221 219 214 215 217 218 213 209 205
329 329 329 328 328 327 325 329 332 330 326 325 329 330 332 334 332 335 4 42 347 17 5 339 329 353 46 36 24 25 28 60 174 239 231 227 228 227 220 214 210 208 205